N8432L KLUK-KCAK

Flight info

Callsign N8432L
Flight time 0h 51m
Altitude 25000
Route APE
Aircraft B350/L-SBGRW/S

Departure

Time 2026-05-09 00:16
Airport Cincinnati Municipal Airport Lunken Field (KLUK)

Arrival

Time 2026-05-09 01:08
Airport Akron Canton Regional Airport (KCAK)
Time Latitude Longitude Altitude Speed Heading
2026-05-08 23:52 39.09411 -84.42369 494 ft 0 kts 244°
2026-05-09 00:10 39.09406 -84.42376 489 ft 4 kts 216°
2026-05-09 00:10 39.09371 -84.42333 492 ft 4 kts 148°
2026-05-09 00:10 39.09405 -84.42258 492 ft 15 kts 33°
2026-05-09 00:11 39.09432 -84.42205 485 ft 0 kts 71°
2026-05-09 00:12 39.09438 -84.42186 490 ft 9 kts 57°
2026-05-09 00:12 39.09531 -84.42229 489 ft 22 kts 335°
2026-05-09 00:12 39.09699 -84.42334 491 ft 26 kts 334°
2026-05-09 00:12 39.09869 -84.42443 490 ft 25 kts 332°
2026-05-09 00:13 39.09982 -84.42517 489 ft 30 kts 334°
2026-05-09 00:13 39.10197 -84.42651 485 ft 38 kts 333°
2026-05-09 00:13 39.10370 -84.42757 487 ft 16 kts 352°
2026-05-09 00:13 39.10453 -84.42590 482 ft 24 kts 63°
2026-05-09 00:14 39.10510 -84.42443 478 ft 20 kts 66°
2026-05-09 00:14 39.10592 -84.42252 483 ft 30 kts 62°
2026-05-09 00:14 39.10662 -84.42088 485 ft 5 kts 62°
2026-05-09 00:14 39.10705 -84.41981 484 ft 21 kts 64°
2026-05-09 00:15 39.10794 -84.41764 484 ft 32 kts 61°
2026-05-09 00:15 39.10910 -84.41481 475 ft 39 kts 62°
2026-05-09 00:15 39.10932 -84.41283 477 ft 19 kts 156°
2026-05-09 00:15 39.10822 -84.41218 476 ft 32 kts 166°
2026-05-09 00:16 39.10435 -84.41376 486 ft 101 kts 201°
2026-05-09 00:16 39.09589 -84.41773 625 ft 153 kts 200°
2026-05-09 00:16 39.08490 -84.42117 977 ft 177 kts 177°
2026-05-09 00:16 39.07378 -84.41306 1291 ft 201 kts 129°
2026-05-09 00:17 39.07074 -84.39517 1640 ft 211 kts 83°
2026-05-09 00:17 39.07635 -84.37749 2150 ft 221 kts 56°
2026-05-09 00:17 39.08729 -84.36324 2544 ft 228 kts 40°
2026-05-09 00:17 39.10037 -84.35129 3002 ft 231 kts 31°
2026-05-09 00:18 39.11441 -84.34034 3294 ft 241 kts 30°
2026-05-09 00:18 39.12870 -84.32882 3663 ft 242 kts 32°
2026-05-09 00:18 39.14265 -84.31722 4060 ft 244 kts 33°
2026-05-09 00:18 39.15606 -84.30379 4458 ft 244 kts 47°
2026-05-09 00:19 39.16708 -84.28658 4690 ft 253 kts 52°
2026-05-09 00:19 39.17843 -84.26887 4903 ft 257 kts 56°
2026-05-09 00:19 39.18829 -84.24962 5228 ft 257 kts 59°
2026-05-09 00:19 39.19764 -84.22999 5551 ft 257 kts 60°
2026-05-09 00:20 39.20712 -84.21042 5871 ft 257 kts 56°
2026-05-09 00:20 39.21801 -84.19257 6198 ft 257 kts 51°
2026-05-09 00:20 39.22921 -84.17451 6526 ft 257 kts 53°
2026-05-09 00:20 39.23993 -84.15599 6844 ft 258 kts 53°
2026-05-09 00:21 39.25095 -84.13766 7156 ft 259 kts 52°
2026-05-09 00:21 39.26197 -84.11914 7490 ft 261 kts 52°
2026-05-09 00:21 39.27305 -84.10047 7823 ft 262 kts 51°
2026-05-09 00:21 39.28416 -84.08181 8151 ft 264 kts 51°
2026-05-09 00:22 39.29537 -84.06294 8498 ft 265 kts 50°
2026-05-09 00:22 39.30662 -84.04397 8834 ft 267 kts 50°
2026-05-09 00:22 39.31795 -84.02489 9185 ft 268 kts 49°
2026-05-09 00:22 39.32932 -84.00571 9530 ft 269 kts 49°
2026-05-09 00:23 39.34072 -83.98648 9874 ft 270 kts 49°
2026-05-09 00:23 39.35215 -83.96719 10187 ft 271 kts 48°
2026-05-09 00:23 39.36365 -83.94775 10505 ft 271 kts 47°
2026-05-09 00:23 39.37494 -83.92864 10821 ft 271 kts 47°
2026-05-09 00:24 39.38638 -83.90935 11145 ft 270 kts 47°
2026-05-09 00:24 39.39779 -83.88999 11477 ft 270 kts 46°
2026-05-09 00:24 39.40919 -83.87072 11800 ft 269 kts 46°
2026-05-09 00:24 39.42057 -83.85141 12130 ft 269 kts 46°
2026-05-09 00:25 39.43193 -83.83215 12462 ft 268 kts 45°
2026-05-09 00:25 39.44328 -83.81292 12760 ft 270 kts 45°
2026-05-09 00:25 39.45468 -83.79356 12895 ft 277 kts 45°
2026-05-09 00:25 39.46652 -83.77343 12960 ft 285 kts 46°
2026-05-09 00:26 39.47868 -83.75276 12986 ft 291 kts 46°
2026-05-09 00:26 39.49103 -83.73173 12999 ft 295 kts 46°
2026-05-09 00:26 39.50354 -83.71042 13005 ft 298 kts 46°
2026-05-09 00:26 39.51616 -83.68895 13006 ft 301 kts 46°
2026-05-09 00:27 39.52883 -83.66735 13007 ft 302 kts 46°
2026-05-09 00:27 39.54155 -83.64564 13008 ft 303 kts 46°
2026-05-09 00:27 39.55431 -83.62391 13004 ft 303 kts 46°
2026-05-09 00:27 39.56708 -83.60208 13002 ft 304 kts 46°
2026-05-09 00:28 39.57969 -83.58052 13004 ft 304 kts 46°
2026-05-09 00:28 39.59243 -83.55874 13002 ft 303 kts 46°
2026-05-09 00:28 39.60516 -83.53696 13023 ft 301 kts 46°
2026-05-09 00:28 39.61754 -83.51573 13422 ft 288 kts 46°
2026-05-09 00:29 39.62947 -83.49533 13813 ft 280 kts 45°
2026-05-09 00:29 39.64114 -83.47541 14162 ft 275 kts 45°
2026-05-09 00:29 39.65258 -83.45572 14526 ft 271 kts 45°
2026-05-09 00:29 39.66392 -83.43625 14894 ft 270 kts 45°
2026-05-09 00:30 39.67520 -83.41686 15262 ft 269 kts 45°
2026-05-09 00:30 39.68645 -83.39752 15637 ft 268 kts 45°
2026-05-09 00:30 39.69773 -83.37811 16016 ft 269 kts 45°
2026-05-09 00:30 39.70900 -83.35868 16403 ft 269 kts 45°
2026-05-09 00:31 39.72031 -83.33923 16793 ft 270 kts 45°
2026-05-09 00:31 39.73162 -83.31974 17187 ft 271 kts 45°
2026-05-09 00:31 39.74281 -83.30041 17589 ft 271 kts 45°
2026-05-09 00:31 39.75422 -83.28075 17992 ft 273 kts 45°
2026-05-09 00:32 39.76567 -83.26098 18374 ft 274 kts 45°
2026-05-09 00:32 39.77716 -83.24110 18724 ft 275 kts 45°
2026-05-09 00:32 39.78872 -83.22114 19085 ft 277 kts 45°
2026-05-09 00:32 39.80032 -83.20108 19445 ft 279 kts 45°
2026-05-09 00:33 39.81202 -83.18081 19815 ft 280 kts 45°
2026-05-09 00:33 39.82377 -83.16048 20187 ft 282 kts 44°
2026-05-09 00:33 39.83557 -83.14002 20564 ft 284 kts 44°
2026-05-09 00:33 39.84746 -83.11940 20940 ft 285 kts 44°
2026-05-09 00:34 39.85938 -83.09872 21320 ft 287 kts 44°
2026-05-09 00:34 39.87140 -83.07785 21716 ft 289 kts 44°
2026-05-09 00:34 39.88333 -83.05711 22110 ft 290 kts 44°
2026-05-09 00:34 39.89548 -83.03600 22513 ft 292 kts 44°
2026-05-09 00:35 39.90769 -83.01474 22921 ft 294 kts 44°
2026-05-09 00:35 39.91999 -82.99335 23318 ft 296 kts 44°
2026-05-09 00:35 39.93233 -82.97184 23688 ft 298 kts 44°
2026-05-09 00:35 39.94479 -82.95011 24036 ft 299 kts 44°
2026-05-09 00:36 39.95725 -82.92836 24392 ft 300 kts 43°
2026-05-09 00:36 39.96989 -82.90632 24660 ft 305 kts 43°
2026-05-09 00:36 39.98283 -82.88375 24786 ft 315 kts 44°
2026-05-09 00:36 39.99610 -82.86048 24849 ft 324 kts 44°
2026-05-09 00:37 40.00957 -82.83692 24879 ft 332 kts 44°
2026-05-09 00:37 40.02354 -82.81247 24894 ft 339 kts 45°
2026-05-09 00:37 40.03771 -82.78761 24904 ft 344 kts 45°
2026-05-09 00:37 40.05207 -82.76243 24905 ft 347 kts 45°
2026-05-09 00:38 40.06656 -82.73701 24907 ft 350 kts 45°
2026-05-09 00:38 40.08114 -82.71140 24909 ft 352 kts 45°
2026-05-09 00:38 40.09578 -82.68568 24899 ft 353 kts 45°
2026-05-09 00:38 40.11047 -82.65982 24905 ft 354 kts 45°
2026-05-09 00:39 40.12505 -82.63416 24905 ft 354 kts 45°
2026-05-09 00:39 40.13989 -82.60799 24902 ft 355 kts 45°
2026-05-09 00:39 40.15466 -82.58234 24668 ft 353 kts 41°
2026-05-09 00:39 40.17108 -82.55886 24319 ft 347 kts 37°
2026-05-09 00:40 40.18723 -82.53526 23967 ft 349 kts 41°
2026-05-09 00:40 40.20320 -82.51150 23621 ft 347 kts 39°
2026-05-09 00:40 40.21934 -82.48789 23102 ft 348 kts 40°
2026-05-09 00:41 40.25119 -82.44080 22031 ft 342 kts 40°
2026-05-09 00:41 40.26690 -82.41749 21506 ft 340 kts 41°
2026-05-09 00:41 40.28232 -82.39469 20997 ft 337 kts 41°
2026-05-09 00:41 40.29775 -82.37186 20492 ft 333 kts 41°
2026-05-09 00:42 40.31292 -82.34934 19998 ft 326 kts 41°
2026-05-09 00:42 40.32787 -82.32725 19507 ft 322 kts 41°
2026-05-09 00:42 40.34260 -82.30536 19024 ft 318 kts 42°
2026-05-09 00:42 40.35712 -82.28380 18557 ft 314 kts 42°
2026-05-09 00:43 40.37156 -82.26235 18066 ft 311 kts 42°
2026-05-09 00:43 40.38579 -82.24118 17529 ft 308 kts 42°
2026-05-09 00:43 40.39988 -82.22020 17002 ft 305 kts 42°
2026-05-09 00:43 40.41386 -82.19939 16482 ft 302 kts 42°
2026-05-09 00:44 40.42773 -82.17875 15970 ft 300 kts 42°
2026-05-09 00:44 40.44145 -82.15828 15480 ft 298 kts 43°
2026-05-09 00:44 40.45380 -82.13985 15019 ft 296 kts 43°
2026-05-09 00:44 40.46735 -82.11963 14531 ft 294 kts 43°
2026-05-09 00:45 40.48078 -82.09957 14050 ft 291 kts 43°
2026-05-09 00:45 40.49407 -82.07969 13561 ft 288 kts 43°
2026-05-09 00:45 40.50723 -82.06006 13022 ft 286 kts 43°
2026-05-09 00:45 40.52035 -82.04041 12491 ft 285 kts 44°
2026-05-09 00:46 40.53337 -82.02087 11989 ft 283 kts 44°
2026-05-09 00:46 40.54643 -82.00135 11484 ft 283 kts 45°
2026-05-09 00:46 40.55932 -81.98187 10964 ft 284 kts 49°
2026-05-09 00:46 40.57043 -81.96021 10398 ft 285 kts 53°
2026-05-09 00:47 40.58330 -81.94057 9915 ft 281 kts 44°
2026-05-09 00:47 40.59694 -81.92225 9404 ft 279 kts 42°
2026-05-09 00:47 40.61074 -81.90437 8882 ft 278 kts 42°
2026-05-09 00:47 40.62353 -81.88523 8357 ft 278 kts 49°
2026-05-09 00:48 40.63612 -81.86587 7850 ft 277 kts 45°
2026-05-09 00:48 40.64895 -81.84698 7418 ft 274 kts 46°
2026-05-09 00:48 40.66119 -81.82831 7218 ft 264 kts 46°
2026-05-09 00:48 40.67306 -81.81056 7127 ft 253 kts 45°
2026-05-09 00:49 40.68449 -81.79340 7078 ft 247 kts 46°
2026-05-09 00:49 40.69577 -81.77628 7061 ft 248 kts 45°
2026-05-09 00:49 40.70708 -81.75923 7045 ft 246 kts 46°
2026-05-09 00:49 40.71840 -81.74209 6915 ft 252 kts 46°
2026-05-09 00:50 40.73003 -81.72449 6581 ft 262 kts 46°
2026-05-09 00:50 40.74217 -81.70616 6284 ft 268 kts 46°
2026-05-09 00:50 40.75446 -81.68749 5936 ft 270 kts 46°
2026-05-09 00:50 40.76551 -81.66748 5611 ft 273 kts 66°
2026-05-09 00:51 40.77226 -81.64414 5279 ft 273 kts 70°
2026-05-09 00:51 40.77856 -81.62042 4951 ft 274 kts 71°
2026-05-09 00:51 40.78469 -81.59659 4615 ft 274 kts 72°
2026-05-09 00:51 40.79069 -81.57288 4295 ft 271 kts 72°
2026-05-09 00:52 40.79654 -81.54950 4168 ft 264 kts 72°
2026-05-09 00:52 40.80218 -81.52681 4094 ft 257 kts 71°
2026-05-09 00:52 40.80773 -81.50472 4063 ft 251 kts 71°
2026-05-09 00:52 40.81317 -81.48307 4048 ft 246 kts 71°
2026-05-09 00:53 40.81854 -81.46164 4044 ft 244 kts 71°
2026-05-09 00:53 40.82380 -81.44076 4044 ft 242 kts 71°
2026-05-09 00:53 40.82907 -81.41969 4031 ft 241 kts 71°
2026-05-09 00:53 40.83430 -81.39877 4029 ft 239 kts 71°
2026-05-09 00:54 40.83952 -81.37792 4048 ft 239 kts 71°
2026-05-09 00:54 40.84474 -81.35700 4036 ft 239 kts 71°
2026-05-09 00:54 40.84991 -81.33617 4036 ft 239 kts 71°
2026-05-09 00:54 40.85506 -81.31534 4040 ft 238 kts 71°
2026-05-09 00:55 40.86020 -81.29455 4041 ft 238 kts 71°
2026-05-09 00:55 40.86665 -81.27448 4045 ft 236 kts 49°
2026-05-09 00:55 40.87963 -81.26289 4051 ft 222 kts
2026-05-09 00:55 40.88966 -81.25946 4045 ft 220 kts
2026-05-09 00:56 40.90464 -81.25538 4035 ft 220 kts
2026-05-09 00:56 40.92002 -81.25178 3799 ft 229 kts
2026-05-09 00:56 40.93599 -81.24832 3554 ft 235 kts
2026-05-09 00:56 40.95205 -81.24496 3311 ft 238 kts
2026-05-09 00:57 40.96840 -81.24167 3184 ft 236 kts
2026-05-09 00:57 40.98446 -81.23842 3104 ft 231 kts
2026-05-09 00:57 41.00022 -81.23531 3065 ft 227 kts
2026-05-09 00:57 41.01579 -81.23241 3053 ft 224 kts
2026-05-09 00:58 41.03113 -81.22943 3044 ft 222 kts
2026-05-09 00:58 41.04637 -81.22644 3046 ft 221 kts
2026-05-09 00:58 41.06162 -81.22343 3038 ft 221 kts
2026-05-09 00:58 41.07659 -81.22043 3046 ft 220 kts
2026-05-09 00:59 41.09172 -81.21738 3055 ft 220 kts
2026-05-09 00:59 41.10620 -81.21956 3061 ft 202 kts 322°
2026-05-09 00:59 41.11407 -81.23315 2978 ft 179 kts 280°
2026-05-09 00:59 41.11633 -81.24823 2911 ft 153 kts 274°
2026-05-09 01:00 41.11779 -81.26230 2881 ft 154 kts 272°
2026-05-09 01:00 41.11897 -81.27643 2866 ft 154 kts 271°
2026-05-09 01:00 41.12006 -81.29044 2861 ft 151 kts 271°
2026-05-09 01:00 41.12110 -81.30424 2850 ft 150 kts 271°
2026-05-09 01:01 41.12213 -81.31784 2848 ft 149 kts 271°
2026-05-09 01:01 41.12315 -81.33152 2821 ft 148 kts 271°
2026-05-09 01:01 41.12417 -81.34504 2819 ft 147 kts 271°
2026-05-09 01:01 41.12520 -81.35854 2830 ft 147 kts 271°
2026-05-09 01:02 41.12622 -81.37213 2832 ft 148 kts 271°
2026-05-09 01:02 41.12727 -81.38580 2836 ft 149 kts 271°
2026-05-09 01:02 41.12837 -81.39947 2826 ft 149 kts 271°
2026-05-09 01:02 41.12948 -81.41316 2842 ft 149 kts 271°
2026-05-09 01:03 41.12893 -81.42637 2857 ft 146 kts 240°
2026-05-09 01:03 41.12098 -81.43488 2842 ft 151 kts 216°
2026-05-09 01:03 41.11171 -81.44171 2843 ft 153 kts 214°
2026-05-09 01:03 41.10133 -81.44563 2843 ft 167 kts 178°
2026-05-09 01:04 41.09051 -81.43822 2836 ft 181 kts 154°
2026-05-09 01:04 41.08138 -81.42651 2848 ft 189 kts 128°
2026-05-09 01:04 41.07353 -81.41324 2921 ft 179 kts 151°
2026-05-09 01:04 41.06283 -81.40722 2895 ft 165 kts 185°
2026-05-09 01:05 41.05161 -81.40875 2788 ft 166 kts 197°
2026-05-09 01:05 41.04033 -81.41136 2675 ft 163 kts 200°
2026-05-09 01:05 41.01902 -81.41982 2597 ft 155 kts 210°
2026-05-09 01:06 41.00882 -81.42441 2530 ft 157 kts 203°
2026-05-09 01:06 40.99811 -81.42761 2539 ft 156 kts 199°
2026-05-09 01:06 40.98738 -81.43044 2479 ft 158 kts 200°
2026-05-09 01:06 40.97663 -81.43387 2339 ft 161 kts 201°
2026-05-09 01:07 40.96546 -81.43688 2203 ft 165 kts 195°
2026-05-09 01:07 40.95456 -81.43830 2073 ft 153 kts 190°
2026-05-09 01:07 40.94457 -81.43903 1827 ft 128 kts 185°
2026-05-09 01:07 40.93608 -81.43963 1507 ft 118 kts 186°
2026-05-09 01:08 40.92822 -81.44011 1279 ft 107 kts 183°
2026-05-09 01:08 40.92131 -81.44051 1223 ft 91 kts 184°
2026-05-09 01:08 40.91648 -81.44078 1219 ft 31 kts 181°
2026-05-09 01:08 40.91440 -81.44079 1219 ft 23 kts 160°
2026-05-09 01:09 40.91352 -81.44067 1219 ft 22 kts 166°
2026-05-09 01:09 40.91273 -81.43961 1218 ft 0 kts 132°
2026-05-09 01:10 40.91260 -81.43925 1218 ft 10 kts 101°
2026-05-09 01:10 40.91319 -81.43870 1218 ft 17 kts 20°
2026-05-09 01:11 40.91365 -81.43881 1218 ft 12 kts 310°
2026-05-09 01:11 40.91472 -81.43951 1219 ft 13 kts 359°
2026-05-09 01:11 40.91536 -81.43946 1219 ft 13 kts
2026-05-09 01:11 40.91627 -81.43899 1220 ft 19 kts 27°
2026-05-09 01:12 40.91673 -81.43842 1222 ft 1 kts 60°
2026-05-09 01:12 40.91687 -81.43764 1223 ft 15 kts 68°
2026-05-09 01:12 40.91715 -81.43715 1224 ft 6 kts 94°
2026-05-09 01:12 40.91694 -81.43664 1224 ft 8 kts 123°
2026-05-09 01:13 40.91694 -81.43601 1224 ft 0 kts 37°